リニア彗星

345P/LINEAR (2024)

English version
Home page
Updated on September 3, 2024

---------------------------------------------------------------------

・ プロフィール

・ 軌道要素

Epoch 2024 Oct. 17.0 TT = JDT 2460600.5
T 2024 Aug. 30.63356 TT                                 Rudenko
q   3.1393958            (2000.0)            P               Q
n   0.12176477     Peri.  196.68270     +0.98807061     +0.15263339
a   4.0313911      Node   154.51065     -0.13530154     +0.92390186
e   0.2212624      Incl.    2.72804     -0.07355249     +0.35086806
P   8.09
>From 153 observations 2008 Sept. 2-2024 Aug. 12, mean residual 0".7.

・ 光度変化

        m1 = 12.0 + 5 logΔ + 10.0 log r

---------------------------------------------------------------------

軌道要素はM.P.E.C. 2024-Q20に掲載されたものです。
光度グラフはComet for Windowsで作成したものです。

---------------------------------------------------------------------

Copyright(C) Seiichi Yoshida (comet@aerith.net). All rights reserved.